Regional Weather Roundup
Issued by NWS Newport/Morehead, NC

Current Version | Previous Version | Graphics & Text | Print | Product List | Glossary Off
Versions: 1 2 3 4 5 6 7 8 9 10 11 12 13 14 15 16 17 18 19 20 21 22 23 24 25 26 27 28 29 30 31 32 33 34 35 36 37 38 39 40 41 42 43 44 45 46 47 48 49 50

000
ASUS42 KMHX 101522
RWRMHX
WEATHER ROUNDUP FOR EASTERN NORTH CAROLINA
NATIONAL WEATHER SERVICE NEWPORT/MOREHEAD CITY NC
1100 AM EDT THU JUL 10 2014

NOTE: "FAIR" INDICATES FEW OR NO CLOUDS BELOW 12,000 FEET
WITH NO SIGNIFICANT WEATHER AND/OR OBSTRUCTIONS TO VISIBILITY

NCZ015>017-031-032-045>047-102-103-101600-
NORTH COAST

CITY           SKY/WX    TMP DP  RH WIND       PRES   REMARKS
EDENTON        CLOUDY    81  74  79 SW9       30.10R
ELIZABETH CITY CLOUDY    80  75  84 SW7       30.09R
KITTY HAWK     PTSUNNY   85  74  68 SW7       30.09S
MANTEO         PTSUNNY   86  74  67 SW10      30.10S

$$

NCZ045>047-081-094-103-104-101600-
CENTRAL COAST

CITY           SKY/WX    TMP DP  RH WIND       PRES   REMARKS
FRISCO         MOSUNNY   85  77  77 SW10      30.12S
SWANQUARTER      N/A     88 N/A N/A SW5G16    30.06S

$$

NCZ095-097-098-100-101-101600-
SOUTHERN COAST

CITY           SKY/WX    TMP DP  RH WIND       PRES   REMARKS
BEAUFORT       MOSUNNY   85  78  80 S20       30.12S
CEDAR ISLAND     N/A     88 N/A N/A S14G20    30.15S
JACKSONVILLE   LGT RAIN  82  72  71 SW8       30.10R
NEWPORT        NOT AVBL
PINEY ISLAND   NOT AVBL
WILMINGTON     LGT RAIN  74  67  78 CALM      30.10F


$$

NCZ011>013-027>030-043-044-078>080-089-090>093-098-101600-
COASTAL PLAIN

CITY           SKY/WX    TMP DP  RH WIND       PRES   REMARKS
AHOSKIE        CLOUDY    79  73  81 CALM      30.09S
CLINTON        MOSUNNY   84  77  78 SW5       30.09S
ELIZABETHTOWN  MOSUNNY   86  72  62 SE5       30.09S
GOLDSBORO      PTSUNNY   84  79  84 SW9       30.06F
GREENVILLE     PTSUNNY   81  77  89 SW7       30.10S
HAVELOCK       PTSUNNY   85  76  74 S14G21    30.11S
KENANSVILLE    MOSUNNY   84  75  74 S3        30.10S
KINSTON        MOSUNNY   84  77  79 S7        30.09F
NEW BERN       TSTM      82  75  79 S13G18    30.11R
RICHLANDS      PTSUNNY   82  68  61 S12       30.11R
ROANOKE RAPIDS NOT AVBL
ROCKY MOUNT    CLOUDY    81  73  76 S3        30.09R
WASHINGTON     PTSUNNY  N/A N/A N/A SW7       30.09S
WHITEVILLE     MOSUNNY   85  75  73 SE6       30.09S

$$

AMZ130-135-150-152-154-156-158-170-250-252-270-ANZ085-086-088-633-658-670-101600-
MARINE OBSERVATIONS

STATION/POSITION TIME  TEMP    WIND        PRES    WAVE   SWELL
                       AIR SEA DIR/SP/G            HT/PER HT/PER
                 (UTC) (F)     (DEG/KT/KT) (MB)    (FT/S) (FT/S)
CHESAPEAKE LIGHT NOT AVBL
BUOY 44014       1500   77 76  220/  6/  8 1018.8    3/ 6   3/ 6
DUCK             1500   81 62  210/  6/ 10 1018.3
2E DUCK          1500                        N/A     2/ 9
OREGON INLET     1500   81 83  190/ 16/ 19 1019.4
BUOY 44095       1500      80                N/A     3/ 6
HATTERAS CG      1500   83 81  200/  7/ 14 1020.2
DIAMOND BUOY     1500          VRB 12/ 14  1020.2    5/ 6   3/ 6
17S OCRACOKE INL NOT AVBL
CAPE LOOKOUT     1500   83     190/ 15/ 17 1019.9
BEAUFORT LAB     1500   82 82  200/ 15/ 18 1019.5
30 SE NEW RIVER  1500   82 82  200/ 16/ 19 1020.2    4/ 6   2/ 8
5 SE WRIGHTSVILL 1500   73 81  250/ 19/ 21 1020.0
FRYING PAN BUOY  NOT AVBL
BUOY 41001       NOT AVBL
BUOY 41002       1431   81 81  210/ 12/ 14 1023.0    3/ 5   2/ 9
BUOY 41004       1500   81 81  190/ 12/ 14 1018.9    4/ 6   3/ 6

$$



USA.gov is the U.S. government's official web portal to all federal, state and local government web resources and services.